Showing default

AII-BRAVO, 48270

Orbit data source: Space-Track

AII-BRAVO, 48270 is a Lithuanian payload satellite in SSO that was launched on Thu, 29 Apr 2021 UTC via a VEGA launch vehicle from the French Guiana (FRGUI). Payload-class satellites include a variety of spacecraft equipped with specific instruments for various scientific and technological missions. These include communications satellites like Starlink; space stations such as the ISS; scientific satellites like the Hubble; Earth observation satellites from companies like Planet Labs, Umbra, and HawkEye 360; GPS; miniature CubeSats for education and research; and military/defense satellites.

Loading next visibility...
Identifier
48270, 2021-034C
Orbit
SSO
Country
Flag of LTLT / LTU
Related business
Manufacturer
NanoAvionics US
Mission
Operational Commercial Sigint
Bus & Motor
CUBESAT 6U, Unknown motor
Mass
~10 kg wet, ~10 kg dry
Launch date (UTC)
2021-04-29 (5 years ago)
Launch vehicle
VEGA
Launch site
French Guiana (FRGUI)
Object type
Payload
Rocket body
Debris
Shape & HBR
Box + 2 Pan, 0.3 m
Radar Cross Section
0.104 m², Medium (>0.1 m² and < 1m²)

Expand to show TLE details & history
Last TLE update: 2 days ago

TLE from 2 days ago
0 AII-BRAVO
1 48270U 21034C   26171.41555069  .00003139  00000-0  23458-3 0  9994
2 48270  97.5627 226.2530 0004058 242.5400 117.5413 15.03503115280100
Epoch: 2026-06-20T09:58Z
TLE epoch observation values (Epoch: 2026-06-20T09:58:23.579Z)
Latitude
-0.00007°
Longitude
168.02427°
Altitude
560.47 km
Speed
7.58 km/s
True Right ascension
15h 05m 00s
True Declination
0° 00' 00"
Sunlit
Object was in full shadow at epoch
Visualization orbit readout
Latitude
Unknown
Longitude
Unknown
Altitude
Unknown
Speed
Unknown
Apparent Right ascension
Unknown
Apparent Declination
Unknown
Sunlit
N/A
Visualization observer readout
Local Sidereal Time
00:50:31
Azimuth
Unknown
Elevation
Unknown
Doppler factor
Unknown
Orbital elements
Apogee altitude
555.912 km
Perigee altitude
550.286 km
Semi-major axis
6,931.236 km
Eccentricity
0.00041
Inclination
97.5627°
RAAN
226.253°
Arg. of periapsis
242.54°
True anomaly
117.58252°
Mean anomaly
117.5413°
Eccentric anomaly
117.56191°
Mean motion
3.76121 °/min
Orbital period
95.71 mins
BSTAR
0.00023458
Loading maneuver chart data...
Computing Atmospheric mass density...
Loading historical data...
Loading historical data...
Loading historical data...
Loading historical data...
Loading historical data...
Loading historical data...
Loading historical data...
Other satellites on launch #34 in the year 2021 (2021-04-29 UTC)

Documentation

Showing up to 5 results
|